• Processing (Info)

  • MPEC 1995-T07 : 1995 QX9

    The following Minor Planet Electronic Circular may be linked-to from your own Web pages, but must not otherwise be redistributed electronically.

    A form allowing access to any MPEC is at the bottom of this page.


    Read MPEC 1995-T06 Read MPEC 1995-U01


    M.P.E.C. 1995-T07                                Issued 1995 Oct. 13, 13:03 UT
    
         The Minor Planet Electronic Circulars contain information on unusual
             minor planets and routine data on comets.  They are published
       on behalf of Commission 20 of the International Astronomical Union by the
              Minor Planet Center, Smithsonian Astrophysical Observatory,
                              Cambridge, MA 02138, U.S.A.
    
                 BMARSDEN@CFA.HARVARD.EDU or GWILLIAMS@CFA.HARVARD.EDU
    
                                       1995 QX9
    
    Observations:
         J95Q09X* A1995 08 18.56662 22 05 38.62 -29 04 46.7          17   V      413
         J95Q09X  A1995 08 18.60829 22 05 39.22 -29 05 21.7                      413
         J95Q09X  A1995 09 22.48075 22 23 32.62 -31 54 08.3          18   V      413
         J95Q09X  A1995 09 22.53631 22 23 34.91 -31 53 49.5                      413
         J95Q09X F 1995 10 12.39498 22 45 02.15 -28 29 38.3          18.5 V      413
         J95Q09X F 1995 10 12.45053 22 45 06.10 -28 28 52.6                      413
    
    Observer details:
    413 Siding Spring Observatory.  Observer K. S. Russell.  Measurer
        R. H. McNaught.  U.K. Schmidt.
    
    Orbital elements:
    1995 QX9
    Epoch 1995 Aug. 31.0 TT = JDT 2449960.5                 Williams
    M 358.74108              (2000.0)            P               Q
    n   0.23818468     Peri.  229.48238     +0.91142811     +0.38758855
    a   2.5774693      Node   107.30697     -0.32003032     +0.87874157
    e   0.4374469      Incl.    8.31746     -0.25861052     +0.27854688
    P   4.14           H    17.5          G   0.15
    From 8 observations 1995 Aug. 18-Oct. 12.
    
    Ephemeris:
    1995 QX9                 a,e,i = 2.58, 0.44, 8                   q = 1.4500
    Date    TT    R. A. (2000) Decl.     Delta      r     Elong.  Phase     V
    1995 10 10    22 41.99   -29 02.7    0.623    1.486   131.4    30.2    18.6
    1995 10 20    22 55.30   -26 33.4    0.689    1.509   126.3    32.1    18.9
    1995 10 30    23 10.07   -23 40.0    0.765    1.537   121.4    33.5    19.3
    1995 11 09    23 25.93   -20 31.9    0.852    1.570   116.7    34.3    19.6
    1995 11 19    23 42.50   -17 16.2    0.948    1.606   112.1    34.8    19.8
    1995 11 29    23 59.60   -13 58.4    1.055    1.646   107.5    34.9    20.1
    1995 12 09    00 17.06   -10 42.4    1.170    1.689   102.8    34.7    20.4
    1995 12 19    00 34.78   -07 31.3    1.294    1.734    98.2    34.2    20.7
    1995 12 29    00 52.71   -04 26.7    1.426    1.781    93.5    33.4    20.9
    1996 01 08    01 10.83   -01 30.3    1.565    1.830    88.7    32.5    21.2
    
    Gareth V. Williams                                            M.P.E.C. 1995-T07
    

    Read MPEC 1995-T06 Read MPEC 1995-U01


    MPEC number:

    Enter an MPEC number in one of the following forms:

    • 1997-B01 (the full form)
    • J97B01 (the packed version of the full form)
    • B01 (the abbreviated form)